{"data":{"norad_id":61961,"epoch":"2026-09-21T01:48:54.428544Z","epoch_age_seconds":135929,"freshness":"FRESH","line1":"1 61961U 24210C   26264.07562996  .00008534  00000+0  31930-3 0  9994","line2":"2 61961  43.0028 149.3031 0001440 263.9983  96.0704 15.27578808104879","mean_motion":15.27578808,"eccentricity":0.000144,"inclination_deg":43.0028,"raan_deg":149.3031,"arg_perigee_deg":263.9983,"mean_anomaly_deg":96.0704,"bstar":0.0003193,"rev_number":10487,"period_min":94.266822271863,"perigee_km":482.06465400699,"apogee_km":484.0406766306,"semimajor_km":6861.1896653188,"source":"CELESTRAK","updated_at":"2026-09-22T09:00:49.458407Z"}}